Airfield :
LOGIN :

Register | Disclaimer

   EN    FR    IT 

 










Legend :    VFR   Marginal VFR   IFR   Intensive IFR   Very Intensive IFR
Visi :
Ceiling :
>= 8 km
>= 3000ft
5 to 8 km
1000 to 3000 ft
1500m to 5 km
500 to 1000 ft
800 to 1500m
200 to 500 ft
< 800m
< 200 ft
Symbols :   Thunderstorms  Fog  Heavy snow  Heavy precipitations  Wind > 20 kt
SIGMETs :     Misc.  Thunderstorms  Icing  Turbulence  Mountain Waves  Volcanic Ashes







- Airport Elevation : 24 ft
- IATA code : SGD


EKSB - Sonderborg

CURRENT METAR :
  • 171220Z AUTO 15007KT 9000NDV BKN018/// 11/08 Q1021

EXPIRED METARs :
  • 171150Z AUTO 16004KT 120V200 7000NDV BKN020/// 11/08 Q1021
  • 171120Z AUTO 16005KT 130V200 5000NDV BKN021/// 10/08 Q1022
  • 171050Z AUTO 16005KT 140V210 4800NDV BR BKN020/// 10/08 Q1022
  • 171020Z AUTO 16004KT 4600NDV BR OVC018/// 09/07 Q1022
  • 170950Z AUTO 17004KT 140V200 4900NDV BR OVC017/// 09/07 Q1022
  • 170920Z AUTO 17004KT 140V200 4600NDV BR OVC017/// 09/07 Q1022

Expired Forecast.
No reported NOTAMs for that airfield.



MET'MAP, your aeronautical weather chart ! - Copyright ORBIFLY December 2007 - Disclaimer

ORBIFLY MET'MAP TEAM :

Programming & Development : Alexandra Zaïnal
Concept & Development : Baudouin d'Aumeries
Co-Development & Prog : Marc-Olivier Méhu
Technical & hardware support : Manuel Goepfert

Contact : metmap@orbifly.com




SOURCES & CREDITS :

   NOAA